星链-4779 (STARLINK-4779 )

导读

STARLINK-4779是美国太空探索技术公司(SpaceX)星链(Starlink)星座中的一颗卫星,于2022年9月19日发射升空。星链项目计划在近地轨道部署数万颗卫星,旨在为全球偏远、基础设施匮乏地区提供低延迟、高速的宽带互联网服务,目前已在全球六十多个国家和地区落地商用,推动卫星互联网服务普及。

基本信息
目录编号:
53864
目录名称:
STARLINK-4779
国际标识:
2022-114AY
轨道中心:
EARTH
卫星名称:
星链-4779
卫星全名:
星链-4779 (STARLINK-4779 )
卫星状态:
在轨 (已飞行1367 天)
发射日期:
2022-09-19 UTC
国别 :
美国 (US)
星等 :
--
轨道信息
数据来源 国际轨道数据 AOE轨道数据
星历时间 2026-06-17T03:43:58+0800
13小时前
查看轨道信息
2026-06-16T03:00:00+0800
1天前
查看轨道信息
半长轴 6917.896km 6917.903km
偏心率 0.0001253 0.0001323
轨道倾角 53.159° 53.155°
近地点辐角 79.625° 80.569°
升交点赤经 198.569° 203.203°
平近点角 280.488° 78.797°
近地点 538.892km 538.85km
远地点 540.626km 540.682km
周期 95.438分钟 95.438分钟
每日圈数 15.088352 15.088327
详细信息
固有亮度:
5
最大亮度:
2.5
卫星平台:
Starlink v1.5
覆盖范围:
全球
运营商:
太空探索技术公司
运营商所在国:
美国
制造商(研发单位):
太空探索技术公司
制造商所在国:
美国
使用方式:
暂无
卫星简介
星链(Starlink)计划是由太空探索技术公司(SpaceX)提出的一个巨型低轨卫星互联网星座项目,计划在2019年至2024年间在太空搭建由约1.2万颗卫星组成的“星链”网络,其中1584颗将部署在地球上空550千米处的近地轨道,并从2020年开始工作。该卫星仍在工作。
2D轨道图
3D轨道图
轨道高度分析图
轨道倾角分析图
轨道综合分析图
查看轨道综合分析图